Tracking 28790 objects as of 18-Apr-2024
HD Live streaming from Space Station
objects crossing your sky now

COSMOS 970 DEB

Track COSMOS 970 DEB now!
10-day predictions


NORAD ID: 14443
Int'l Code: 1977-121BF
Perigee: 637.5 km
Apogee: 812.8 km
Inclination: 65.6 °
Period: 99.1 minutes
Semi major axis: 7096 km
RCS: 0.026 m2 (small)
Launch date: December 21, 1977
Source: Commonwealth of Independent States (former USSR) (CIS)
Launch site: TYURATAM MISSILE AND SPACE COMPLEX (TTMTR)

Note: This is SATELLITE DEBRIS
Your satellite tracking list
Your tracking list is empty




NASA's NSSDC Master Catalog

Two Line Element Set (TLE):
1 14443U 77121BF  24109.24378879  .00009159  00000-0  20545-2 0  9990
2 14443  65.5825  60.1656 0123558 220.2964 138.8931 14.52346159220920
Source of the keplerian elements: AFSPC